Sarasota, FL

6:48 AM EDT on October 16, 2019 (GMT -0400)
Sarasota-bradenton

Weather History for KSRQ - August, 2019

Change the Weather History Date:

Tuesday, August 13, 2019

  Actual Average Record
Temperature  
Mean Temperature 83 °F 82 °F  
Max Temperature 88 °F 90 °F 101 °F (2007)
Min Temperature 77 °F 74 °F 67 °F (1972)
Degree Days  
Heating Degree Days 0 0  
Month to date heating degree days 0 0  
Since 1 June heating degree days 0 0  
Since 1 July heating degree days 0 0  
Cooling Degree Days 18 17  
Month to date cooling degree days 247 221  
Year to date cooling degree days 2518 1983  
Since 1 June cooling degree days 1361 1232  
Growing Degree Days 32 (Base 50)    
Moisture  
Dew Point 78 °F    
Average Humidity 89    
Maximum Humidity 97    
Minimum Humidity 75    
Precipitation  
Precipitation 1.15 in 0.32 in 2.20 in (1912)
Month to date precipitation 4.50 3.64  
Year to date precipitation 33.03 32.83  
Sea Level Pressure  
Sea Level Pressure 29.91 in    
Wind  
Wind Speed 6 mph (SSW)    
Max Wind Speed 22 mph    
Max Gust Speed 26 mph    
Visibility 9 miles    
Events Fog , Rain , Thunderstorm    
T = Trace of Precipitation, MM = Missing Value Source: NWS Daily Summary

Daily Weather History Graph

Daily Weather History Graph

Search for Another Location

Airport or City:

Astronomy

Aug. 13, 2019 Rise Set
Actual Time 6:59 AM EDT 8:09 PM EDT
Civil Twilight 6:35 AM EDT 8:34 PM EDT
Nautical Twilight 6:06 AM EDT 9:03 PM EDT
Astronomical Twilight 5:36 AM EDT 9:33 PM EDT
Moon 7:13 PM EDT (8/13) 5:12 AM EDT (8/13)
Length of Visible Light 13h 58m
Length of Day
13h 09m
Waxing Gibbous, 97% of the Moon is Illuminated
Aug 13
Waxing Gibbous
Aug 15
Full
Aug 23
Last Quarter
Aug 30
New
Sep 5
First Quarter

Hourly Weather History & Observations

Time (EDT) Temp. Heat Index Dew Point Humidity Pressure Visibility Wind Dir Wind Speed Gust Speed Precip Events Conditions
12:11 AM 82.0 °F 92.8 °F 80.1 °F 94% 29.91 in 10.0 mi Calm Calm - N/A   Mostly Cloudy
12:27 AM 82.0 °F 92.8 °F 80.1 °F 94% 29.91 in 10.0 mi SE 3.5 mph - N/A   Mostly Cloudy
12:53 AM 82.0 °F 92.8 °F 80.1 °F 94% 29.90 in 10.0 mi ESE 4.6 mph - N/A   Clear
1:53 AM 81.0 °F 89.2 °F 79.0 °F 94% 29.89 in 10.0 mi SE 6.9 mph - N/A   Clear
2:03 AM 81.0 °F 89.2 °F 79.0 °F 94% 29.90 in 10.0 mi SE 3.5 mph - N/A Thunderstorm Clear
2:53 AM 80.1 °F 86.7 °F 79.0 °F 96% 29.89 in 10.0 mi NNW 13.8 mph - N/A Thunderstorm Mostly Cloudy
3:02 AM 79.0 °F - 77.0 °F 94% 29.90 in 5.0 mi NW 21.9 mph 25.3 mph 0.02 in Rain , Thunderstorm Rain
3:07 AM 78.1 °F - 75.9 °F 93% 29.91 in 1.8 mi NW 20.7 mph 25.3 mph 0.16 in Rain , Thunderstorm Heavy Rain
3:12 AM 78.1 °F - 75.9 °F 93% 29.91 in 0.8 mi West 17.3 mph - 0.42 in Rain , Thunderstorm Heavy Rain
3:21 AM 78.1 °F - 77.0 °F 96% 29.92 in 0.5 mi WSW 12.7 mph - 0.88 in Fog , Rain , Thunderstorm Heavy Thunderstorms and Rain
3:29 AM 77.0 °F - 77.0 °F 100% 29.91 in 1.0 mi SW 9.2 mph - 1.04 in Rain , Thunderstorm Heavy Thunderstorms and Rain
3:38 AM 78.1 °F - 77.0 °F 96% 29.90 in 3.0 mi SSW 8.1 mph - 1.08 in Rain , Thunderstorm Heavy Thunderstorms and Rain
3:53 AM 78.1 °F - 75.9 °F 93% 29.90 in 9.0 mi Variable 4.6 mph - 1.09 in Rain Light Rain
4:53 AM 78.1 °F - 75.9 °F 93% 29.88 in 10.0 mi Calm Calm - 0.00 in   Mostly Cloudy
5:53 AM 78.1 °F - 77.0 °F 96% 29.87 in 10.0 mi SSE 3.5 mph - N/A   Overcast
6:53 AM 79.0 °F - 77.0 °F 94% 29.90 in 10.0 mi Calm Calm - N/A   Mostly Cloudy
7:53 AM 80.1 °F 86.4 °F 78.1 °F 94% 29.91 in 10.0 mi SE 8.1 mph - N/A   Scattered Clouds
8:53 AM 82.9 °F 93.8 °F 79.0 °F 88% 29.92 in 10.0 mi South 3.5 mph - N/A   Scattered Clouds
9:53 AM 84.9 °F 96.6 °F 78.1 °F 80% 29.92 in 10.0 mi South 6.9 mph - N/A   Partly Cloudy
10:29 AM 84.9 °F 96.6 °F 78.1 °F 80% 29.92 in 10.0 mi SW 8.1 mph - N/A   Scattered Clouds
10:53 AM 87.1 °F 101.5 °F 79.0 °F 77% 29.94 in 10.0 mi SW 8.1 mph - N/A   Scattered Clouds
11:28 AM 86.0 °F 99.3 °F 79.0 °F 79% 29.93 in 10.0 mi West 11.5 mph - 0.00 in Rain Rain
11:53 AM 84.9 °F 97.5 °F 79.0 °F 82% 29.93 in 10.0 mi West 6.9 mph - 0.00 in   Mostly Cloudy
12:18 PM 84.9 °F 97.5 °F 79.0 °F 82% 29.93 in 10.0 mi West 5.8 mph - 0.00 in Thunderstorm Thunderstorm
12:21 PM 84.9 °F 97.5 °F 79.0 °F 82% 29.93 in 10.0 mi West 6.9 mph - 0.00 in   Scattered Clouds
12:28 PM 84.9 °F 96.6 °F 78.1 °F 80% 29.94 in 10.0 mi West 8.1 mph - 0.00 in Thunderstorm Scattered Clouds
12:43 PM 84.9 °F 96.6 °F 78.1 °F 80% 29.94 in 10.0 mi West 8.1 mph - 0.00 in   Scattered Clouds
12:53 PM 84.9 °F 95.3 °F 77.0 °F 77% 29.94 in 10.0 mi West 6.9 mph - 0.00 in   Scattered Clouds
1:53 PM 87.1 °F 101.5 °F 79.0 °F 77% 29.92 in 10.0 mi NW 6.9 mph - N/A   Partly Cloudy
2:53 PM 86.0 °F 99.3 °F 79.0 °F 79% 29.90 in 10.0 mi West 5.8 mph - N/A   Scattered Clouds
3:53 PM 86.0 °F 98.3 °F 78.1 °F 77% 29.91 in 10.0 mi West 3.5 mph - N/A   Partly Cloudy
4:53 PM 82.0 °F 90.2 °F 77.0 °F 85% 29.91 in 6.0 mi West 13.8 mph - 0.02 in Rain , Thunderstorm Rain
5:15 PM 80.1 °F 86.4 °F 78.1 °F 94% 29.90 in 8.0 mi South 8.1 mph - 0.03 in Rain Light Rain
5:29 PM 82.0 °F 90.2 °F 77.0 °F 85% 29.89 in 10.0 mi South 3.5 mph - 0.04 in Rain , Thunderstorm Light Thunderstorms and Rain
5:44 PM 82.0 °F 91.0 °F 78.1 °F 88% 29.90 in 10.0 mi Calm Calm - 0.04 in Thunderstorm Partly Cloudy
5:53 PM 82.0 °F 91.0 °F 78.1 °F 88% 29.90 in 10.0 mi SE 3.5 mph - 0.04 in   Partly Cloudy
6:53 PM 82.0 °F 91.6 °F 79.0 °F 90% 29.89 in 10.0 mi SSE 3.5 mph - N/A   Clear
7:53 PM 82.9 °F 94.8 °F 80.1 °F 91% 29.91 in 10.0 mi SSW 3.5 mph - N/A   Clear
8:48 PM 82.4 °F 92.4 °F 78.8 °F 89% 29.92 in 10.0 mi ESE 4.6 mph - N/A   Mostly Cloudy
8:53 PM 82.0 °F 91.6 °F 79.0 °F 90% 29.92 in 10.0 mi ESE 4.6 mph - N/A   Scattered Clouds
9:00 PM 82.0 °F 91.6 °F 79.0 °F 90% 29.93 in 10.0 mi East 4.6 mph - N/A   Overcast
9:17 PM 82.0 °F 91.6 °F 79.0 °F 90% 29.93 in 10.0 mi SSE 3.5 mph - N/A   Scattered Clouds
9:53 PM 81.0 °F 89.2 °F 79.0 °F 94% 29.94 in 10.0 mi SE 5.8 mph - N/A   Clear
10:53 PM 82.0 °F 91.6 °F 79.0 °F 90% 29.94 in 10.0 mi Calm Calm - N/A   Partly Cloudy
11:53 PM 81.0 °F 89.2 °F 79.0 °F 94% 29.94 in 10.0 mi SE 8.1 mph - N/A   Partly Cloudy